Date String (YYYY-MM-DD hh:mm:ss) UTC,Instrument flags,absolute air pressure of the measurement (hPa),sample flow rate (lpm),inlet stack bypass flow (lpm),air temperature of the measurement (°C),ambient temperature measured by the external sensor (°C),aerosol sample conditioner tube jacket temperature (°C),OPC LED temperature (°C),internal box temperature (°C),relative humidity of the measurement (%),span deviation,mass concentration of particles derived from Lorenz-Mie calculation of OPC scattering (μg/m³),mass concentration of particles derived from Lorenz-Mie calculation of OPC scattering (μg/m³),mass concentration of particles derived from Lorenz-Mie calculation of OPC scattering (μg/m³)
DateTimeUTC,F1_M11,P_M11,Q1_M11,Q2_M11,T1_M11,T2_M11,T3_M11,T4_M11,T5_M11,U1_M11,ZSPAN_M11,X0_M11,X2_M11,X1_M11
2024-03-19 00:00:00,SystemResetWarning,0831.9,5.00,000.00,023.1,022.6,000.0,031.5,025.0,12.2,0000.0,0010.01,0004.10,0003.59
2024-03-19 00:01:00,SystemResetWarning,0831.9,4.99,000.00,023.2,022.6,000.0,031.5,025.0,12.1,0000.0,0009.59,0003.97,0003.51
2024-03-19 00:02:00,SystemResetWarning,0831.9,5.00,000.00,023.2,022.6,000.0,031.5,025.0,12.1,0000.0,0009.68,0003.89,0003.45
2024-03-19 00:03:00,SystemResetWarning,0831.9,5.00,000.00,023.2,022.6,000.0,031.5,025.0,12.0,0000.0,0009.65,0003.84,0003.41
2024-03-19 00:04:00,SystemResetWarning,0831.9,5.00,000.00,023.2,022.7,000.0,031.5,025.0,12.0,0000.0,0009.43,0003.74,0003.35
2024-03-19 00:05:00,SystemResetWarning,0831.9,5.00,000.00,023.2,022.7,000.0,031.5,025.0,12.1,0000.0,0008.66,0003.69,0003.30
2024-03-19 00:06:00,SystemResetWarning,0831.9,5.00,000.00,023.2,022.7,000.0,031.6,025.0,12.1,0000.0,0008.85,0003.66,0003.24
2024-03-19 00:07:00,SystemResetWarning,0831.9,5.00,000.00,023.2,022.7,000.0,031.6,025.0,12.0,0000.0,0008.74,0003.63,0003.20
2024-03-19 00:08:00,SystemResetWarning,0831.9,5.00,000.00,023.3,022.7,000.0,031.6,025.1,12.1,0000.0,0009.64,0003.63,0003.16
2024-03-19 00:09:00,SystemResetWarning,0831.9,5.01,000.00,023.3,022.7,000.0,031.6,025.1,12.2,0000.0,0010.10,0003.64,0003.14
2024-03-19 00:10:00,SystemResetWarning,0831.9,5.00,000.00,023.3,022.7,000.0,031.6,025.1,12.4,0000.0,0009.46,0003.60,0003.12
2024-03-19 00:11:00,SystemResetWarning,0831.9,5.00,000.00,023.3,022.7,000.0,031.6,025.1,12.4,0000.0,0009.45,0003.57,0003.09
2024-03-19 00:12:00,SystemResetWarning,0831.9,4.99,000.00,023.3,022.7,000.0,031.6,025.1,12.1,0000.0,0009.64,0003.56,0003.08
2024-03-19 00:13:00,SystemResetWarning,0831.8,4.99,000.00,023.3,022.7,000.0,031.6,025.1,12.1,0000.0,0009.25,0003.53,0003.05
2024-03-19 00:14:00,SystemResetWarning,0831.8,5.00,000.00,023.3,022.7,000.0,031.7,025.1,12.2,0000.0,0008.97,0003.53,0003.01
2024-03-19 00:15:00,SystemResetWarning,0831.8,5.01,000.00,023.3,022.7,000.0,031.7,025.1,12.1,0000.0,0009.22,0003.57,0002.98
2024-03-19 00:16:00,SystemResetWarning,0831.8,5.00,000.00,023.3,022.7,000.0,031.7,025.1,12.1,0000.0,0009.15,0003.56,0002.97
2024-03-19 00:17:00,SystemResetWarning,0831.8,5.00,000.00,023.4,022.8,000.0,031.7,025.1,12.0,0000.0,0008.86,0003.53,0002.96
2024-03-19 00:18:00,SystemResetWarning,0832.0,5.00,000.00,023.4,022.8,000.0,031.7,025.1,11.9,0000.0,0008.68,0003.52,0002.95
2024-03-19 00:19:00,SystemResetWarning,0832.1,5.00,000.00,023.4,022.8,000.0,031.7,025.2,11.8,0000.0,0007.82,0003.52,0002.95
2024-03-19 00:20:00,SystemResetWarning,0832.3,5.00,000.00,023.4,022.8,000.0,031.7,025.2,11.8,0000.0,0007.47,0003.51,0002.96
2024-03-19 00:21:00,SystemResetWarning,0832.3,4.99,000.00,023.4,022.8,000.0,031.7,025.2,11.7,0000.0,0007.81,0003.51,0002.97
2024-03-19 00:22:00,SystemResetWarning,0832.2,5.01,000.00,023.4,022.8,000.0,031.8,025.2,11.9,0000.0,0007.75,0003.53,0002.99
2024-03-19 00:23:00,SystemResetWarning,0831.8,5.01,000.00,023.4,022.8,000.0,031.8,025.2,11.8,0000.0,0007.60,0003.53,0002.99
2024-03-19 00:24:00,SystemResetWarning,0831.8,4.99,000.00,023.4,022.8,000.0,031.8,025.2,11.8,0000.0,0007.67,0003.54,0002.99
2024-03-19 00:25:00,SystemResetWarning,0831.7,5.00,000.00,023.4,022.8,000.0,031.8,025.2,11.7,0000.0,0007.51,0003.55,0003.00
2024-03-19 00:26:00,SystemResetWarning,0831.7,5.00,000.00,023.4,022.8,000.0,031.8,025.2,11.8,0000.0,0007.33,0003.54,0003.01
2024-03-19 00:27:00,SystemResetWarning,0831.7,5.00,000.00,023.4,022.8,000.0,031.8,025.2,11.7,0000.0,0007.79,0003.52,0003.01
2024-03-19 00:28:00,SystemResetWarning,0831.7,5.00,000.00,023.4,022.8,000.0,031.8,025.2,11.8,0000.0,0007.98,0003.54,0003.01
2024-03-19 00:29:00,SystemResetWarning,0831.7,5.00,000.00,023.4,022.8,000.0,031.8,025.2,11.7,0000.0,0008.00,0003.56,0003.02
2024-03-19 00:30:00,SystemResetWarning,0831.7,4.99,000.00,023.4,022.8,000.0,031.8,025.2,11.5,0000.0,0007.92,0003.54,0003.03
2024-03-19 00:31:00,SystemResetWarning,0831.7,5.00,000.00,023.5,022.8,000.0,031.8,025.2,11.6,0000.0,0008.07,0003.54,0003.03
2024-03-19 00:32:00,SystemResetWarning,0831.7,5.00,000.00,023.5,022.8,000.0,031.8,025.3,11.6,0000.0,0008.02,0003.55,0003.03
2024-03-19 00:33:00,SystemResetWarning,0831.7,5.01,000.00,023.5,022.9,000.0,031.9,025.3,11.6,0000.0,0008.31,0003.61,0003.04
2024-03-19 00:34:00,SystemResetWarning,0831.7,5.01,000.00,023.5,022.9,000.0,031.9,025.3,11.6,0000.0,0008.37,0003.65,0003.07
2024-03-19 00:35:00,SystemResetWarning,0831.7,5.00,000.00,023.5,022.9,000.0,031.9,025.3,11.6,0000.0,0008.40,0003.67,0003.10
2024-03-19 00:36:00,SystemResetWarning,0831.7,4.99,000.00,023.5,022.9,000.0,031.9,025.3,11.6,0000.0,0008.43,0003.68,0003.11
2024-03-19 00:37:00,SystemResetWarning,0831.7,4.99,000.00,023.5,022.9,000.0,031.9,025.3,11.8,0000.0,0008.43,0003.68,0003.12
2024-03-19 00:38:00,SystemResetWarning,0831.7,5.01,000.00,023.5,022.9,000.0,031.9,025.3,11.9,0000.0,0008.13,0003.73,0003.13
2024-03-19 00:39:00,SystemResetWarning,0831.7,5.01,000.00,023.5,022.9,000.0,031.9,025.3,12.6,0000.0,0007.98,0003.75,0003.15
2024-03-19 00:40:00,SystemResetWarning,0831.7,4.99,000.00,023.5,022.9,000.0,031.9,025.3,12.9,0000.0,0007.90,0003.74,0003.17
2024-03-19 00:41:00,SystemResetWarning,0831.7,4.99,000.00,023.5,022.9,000.0,031.9,025.3,13.7,0000.0,0007.94,0003.76,0003.17
2024-03-19 00:42:00,SystemResetWarning,0831.7,5.00,000.00,023.5,022.9,000.0,031.9,025.3,14.0,0000.0,0007.64,0003.72,0003.15
2024-03-19 00:43:00,SystemResetWarning,0831.7,5.00,000.00,023.5,022.9,000.0,031.9,025.3,13.9,0000.0,0007.14,0003.69,0003.14
2024-03-19 00:44:00,SystemResetWarning,0831.6,5.00,000.00,023.5,022.9,000.0,031.9,025.3,13.9,0000.0,0006.69,0003.60,0003.10
2024-03-19 00:45:00,SystemResetWarning,0831.7,5.01,000.00,023.5,022.9,000.0,032.0,025.3,13.8,0000.0,0006.75,0003.54,0003.03
2024-03-19 00:46:00,SystemResetWarning,0831.6,5.00,000.00,023.6,022.9,000.0,032.0,025.4,13.4,0000.0,0007.60,0003.49,0002.92
2024-03-19 00:47:00,SystemResetWarning,0831.7,5.00,000.00,023.6,022.9,000.0,032.0,025.4,13.6,0000.0,0008.07,0003.46,0002.82
2024-03-19 00:48:00,SystemResetWarning,0831.7,4.99,000.00,023.6,022.9,000.0,032.0,025.4,13.4,0000.0,0008.13,0003.41,0002.72
2024-03-19 00:49:00,SystemResetWarning,0831.7,5.00,000.00,023.6,022.9,000.0,032.0,025.4,13.4,0000.0,0008.07,0003.38,0002.59
2024-03-19 00:50:00,SystemResetWarning,0831.6,4.99,000.00,023.6,022.9,000.0,032.0,025.4,13.2,0000.0,0007.86,0003.29,0002.47
2024-03-19 00:51:00,SystemResetWarning,0831.6,5.00,000.00,023.6,022.9,000.0,032.0,025.4,12.9,0000.0,0008.00,0003.21,0002.33
2024-03-19 00:52:00,SystemResetWarning,0831.7,5.00,000.00,023.6,022.9,000.0,032.0,025.4,13.0,0000.0,0007.93,0003.13,0002.21
2024-03-19 00:53:00,SystemResetWarning,0831.7,5.00,000.00,023.6,022.9,000.0,032.0,025.4,13.3,0000.0,0007.85,0003.08,0002.14
2024-03-19 00:54:00,SystemResetWarning,0831.6,5.00,000.00,023.6,022.9,000.0,032.0,025.4,13.4,0000.0,0007.78,0003.01,0002.06
2024-03-19 00:55:00,SystemResetWarning,0831.7,5.00,000.00,023.6,022.9,000.0,032.0,025.4,13.2,0000.0,0007.85,0002.98,0002.00
2024-03-19 00:56:00,SystemResetWarning,0831.6,5.00,000.00,023.6,022.9,000.0,032.0,025.4,13.2,0000.0,0007.80,0002.89,0001.94
2024-03-19 00:57:00,SystemResetWarning,0831.6,5.00,000.00,023.6,022.9,000.0,032.0,025.4,12.9,0000.0,0007.43,0002.82,0001.91
2024-03-19 00:58:00,SystemResetWarning,0831.7,5.00,000.00,023.6,022.9,000.0,032.0,025.4,12.8,0000.0,0006.88,0002.73,0001.87
2024-03-19 00:59:00,SystemResetWarning,0831.6,5.00,000.00,023.6,022.8,000.0,032.0,025.4,12.8,0000.0,0006.84,0002.71,0001.86
